Theta_e
321 321 322 322 323 323 323 323 323 324 324 324 324 324 324 325 323 321 309 316 318 337 331 314 314 314 313 309 310 309 296 294 301 303 305 310 309 314 320 318 325 325 321 322 328
320 321 322 322 322 322 322 322 323 323 323 324 324 324 324 324 318 310 327 333 336 338 314 312 310 312 306 307 307 302 296 299 305 306 305 306 308 311 311 312 324 325 328 328 329
320 321 322 322 322 321 321 322 322 323 323 323 323 323 323 322 311 311 334 337 334 334 318 315 316 314 306 305 306 304 298 303 304 309 306 306 307 309 307 305 310 323 328 332 332
320 320 321 321 321 321 321 321 322 323 323 322 322 322 324 320 299 310 340 340 340 323 316 315 313 305 301 301 305 298 304 306 305 306 305 305 309 307 307 306 315 316 318 320 326
320 320 321 320 321 321 320 321 321 321 321 321 322 324 317 308 308 316 341 334 329 319 314 313 310 307 301 303 303 299 303 306 307 305 304 310 307 306 306 311 314 316 321 322 322
320 320 320 320 320 320 320 319 319 319 319 321 323 324 318 303 316 318 318 317 317 313 313 310 307 309 304 303 302 305 305 303 305 303 303 303 307 309 308 312 314 315 320 322 322
319 319 319 319 319 320 319 319 318 319 320 323 326 320 311 307 316 315 316 313 314 316 312 314 312 308 307 305 307 305 299 303 302 304 302 305 303 305 310 313 313 315 320 321 322
319 318 318 319 319 319 320 319 319 320 322 324 328 315 308 316 314 316 316 316 318 317 315 315 313 308 304 307 307 300 298 294 301 305 304 304 298 307 310 311 311 316 319 320 321
318 318 318 318 319 319 319 318 319 322 325 325 315 311 309 318 315 317 315 315 317 316 315 318 309 306 307 299 296 298 293 297 300 306 305 302 300 308 311 312 311 313 317 319 319
318 317 317 318 318 318 317 317 318 318 319 319 316 307 311 311 316 318 317 317 315 315 312 310 307 302 301 297 291 295 297 300 302 306 304 300 303 307 310 310 310 312 314 316 318
317 317 317 317 318 317 314 316 306 306 309 307 310 311 315 317 318 315 318 316 315 310 303 308 300 297 300 302 303 302 299 298 303 308 303 300 303 306 308 308 308 310 311 313 316
316 317 317 317 317 317 312 312 317 313 307 312 313 314 317 316 312 315 318 312 311 303 306 303 298 304 307 306 304 302 299 299 303 307 302 300 299 305 307 306 308 309 310 312 312
315 315 316 317 316 313 314 318 319 315 305 313 313 312 312 312 311 313 315 312 308 305 304 299 303 310 307 304 303 300 297 298 298 302 301 299 296 300 307 308 309 309 309 310 309
314 315 316 315 315 318 317 322 318 319 302 309 307 312 314 312 311 317 317 312 309 304 305 302 306 306 304 303 303 297 302 301 299 295 290 298 286 295 304 304 306 306 307 308 309
313 314 315 313 313 315 320 319 318 316 294 308 308 315 314 310 311 314 320 315 307 306 304 302 304 304 302 303 305 300 303 300 299 293 290 293 288 292 303 301 303 305 307 308 308
313 314 314 313 314 316 321 318 316 300 294 305 310 309 306 309 311 314 313 316 314 308 308 304 309 306 304 308 306 307 300 299 296 292 286 293 293 293 298 301 303 306 308 309 307
313 313 312 317 315 322 320 314 299 294 309 306 305 307 306 306 308 310 309 306 303 299 299 304 305 307 309 303 304 300 293 285 286 285 286 295 292 295 301 304 304 304 304 305 304
311 309 315 317 320 322 318 307 294 305 305 312 309 306 304 307 307 309 306 302 309 306 299 297 297 305 309 302 297 296 293 285 281 282 285 294 291 295 303 305 306 305 304 305 304
309 319 315 322 322 322 312 300 300 307 311 309 308 302 302 307 306 307 305 305 308 306 297 296 298 307 307 305 301 296 292 295 289 290 286 290 296 301 303 303 303 303 303 302 304
313 321 322 323 326 320 308 302 308 314 313 311 303 305 300 304 304 303 303 310 308 309 307 301 295 306 305 305 302 296 300 288 291 282 281 288 290 291 297 299 302 301 300 301 302
320 318 325 326 325 313 303 305 310 314 314 311 307 307 307 307 307 304 305 309 311 308 306 303 298 300 305 300 296 297 294 292 292 290 283 282 287 298 297 298 298 299 300 299 298
314 310 325 325 308 309 305 311 308 311 313 314 312 310 307 308 305 304 305 307 312 310 303 304 299 294 298 303 303 297 293 293 287 287 290 288 288 302 298 301 301 300 300 298 298
307 311 323 323 304 304 311 315 315 312 312 312 311 310 310 305 299 305 307 312 314 312 305 304 296 288 294 297 301 298 300 297 295 293 288 284 288 305 303 300 300 298 298 298 299
309 307 313 316 312 307 307 310 310 312 313 313 311 310 306 303 304 302 305 310 313 308 311 308 297 294 290 295 298 297 300 299 294 286 290 291 293 297 298 297 298 298 298 298 300
313 310 311 305 307 310 311 311 308 309 310 310 308 308 305 299 302 302 305 305 309 310 304 300 293 296 299 301 300 298 297 297 293 293 289 293 292 294 296 296 297 299 299 299 300
310 306 309 304 309 307 307 307 307 309 310 307 305 308 307 300 302 301 304 303 303 304 300 303 294 297 297 301 299 297 299 299 299 298 296 296 293 297 299 299 300 300 299 299 300
316 315 309 306 305 303 304 306 307 310 312 315 310 307 306 308 308 305 306 305 303 303 302 300 296 295 291 300 298 290 299 300 299 298 296 290 293 299 298 299 299 298 299 299 300
Wind_Speed
7 7 7 7 7 8 9 10 10 11 11 10 11 10 11 13 13 3 5 5 4 3 3 7 8 11 10 9 8 6 3 6 7 11 5 10 8 9 4 14 7 5 10 7 11
7 7 7 7 7 8 9 10 11 12 12 11 11 10 11 11 4 8 8 7 7 3 3 6 10 10 6 7 7 2 3 9 1 8 7 10 16 13 13 14 13 9 6 10 9
7 6 7 7 7 8 9 10 11 12 12 11 10 11 10 6 4 5 9 9 7 6 5 5 10 11 13 8 11 9 5 4 9 10 10 10 15 9 11 9 7 12 9 11 6
6 6 6 7 8 9 10 11 12 13 13 10 9 12 10 3 4 2 8 8 9 4 5 7 9 8 6 9 8 3 3 8 7 7 9 7 9 9 12 5 8 9 10 26 17
6 6 7 8 8 9 10 11 12 13 14 10 9 10 4 4 10 8 10 10 4 5 7 8 9 10 7 6 4 4 1 6 8 9 7 12 9 9 9 8 10 10 21 22 20
6 6 7 8 9 10 11 11 12 13 14 11 10 13 3 7 7 10 9 9 12 7 10 6 6 10 5 6 6 4 6 4 6 6 3 5 7 11 4 6 10 12 20 21 22
7 7 8 9 10 11 11 12 12 14 14 12 10 5 5 13 6 4 9 8 3 5 8 9 9 9 10 10 5 5 4 7 3 8 5 4 3 7 7 8 10 16 19 19 19
8 8 8 9 10 11 12 12 14 16 15 10 3 3 7 6 4 9 6 6 6 6 5 8 9 7 4 6 3 4 4 4 8 7 3 10 2 6 7 9 9 15 18 17 17
9 9 9 9 10 11 12 14 16 15 13 6 3 4 9 3 3 3 5 6 6 3 4 4 4 6 8 2 6 5 7 2 4 9 7 6 7 5 8 9 9 11 13 15 13
10 10 10 10 10 11 14 11 13 13 8 6 7 5 6 5 3 4 6 3 7 5 5 5 3 3 6 6 3 6 2 6 8 6 8 7 6 7 8 10 10 11 12 13 12
11 10 10 10 8 9 10 6 5 5 3 8 6 6 3 6 3 6 3 7 4 5 6 9 2 3 4 4 6 8 8 9 2 8 6 3 10 9 8 9 10 10 10 10 11
13 11 10 10 8 5 2 4 8 7 6 14 18 9 5 3 5 6 5 5 5 6 8 7 5 6 8 8 4 7 7 9 9 8 5 3 1 8 9 5 9 12 11 11 8
13 11 10 9 9 2 5 8 9 6 2 11 14 7 6 4 7 5 5 7 8 6 6 2 4 7 7 7 9 7 9 10 8 9 7 6 4 5 3 9 12 9 9 9 9
15 12 10 12 2 5 6 13 4 5 2 6 6 6 8 6 1 5 7 5 8 4 8 3 6 5 7 9 9 6 9 8 10 9 4 5 6 9 11 8 8 9 8 9 8
15 13 9 2 6 5 1 3 7 6 2 9 7 1 7 4 7 3 1 6 6 9 5 6 5 7 7 5 3 3 6 6 9 7 4 9 2 8 9 7 9 8 9 9 8
17 13 12 2 3 10 11 6 5 3 6 8 7 6 5 8 6 6 3 2 2 5 7 3 4 3 3 7 7 2 5 8 5 2 2 12 7 3 3 2 5 7 7 8 6
19 12 4 5 5 11 7 5 3 3 9 7 10 8 8 8 6 7 6 4 3 1 6 9 3 6 5 5 9 10 7 5 7 4 6 12 7 2 6 11 10 8 7 5 3
22 10 7 5 9 7 5 4 3 8 8 0 4 9 9 9 7 8 4 4 10 7 6 5 6 4 2 5 2 6 3 6 2 3 6 8 4 2 6 7 6 3 5 6 6
19 2 3 6 9 2 4 1 5 4 5 9 3 4 7 3 5 4 5 4 5 5 3 4 2 3 7 5 4 6 5 3 2 4 2 2 4 2 6 4 5 6 5 7 6
3 3 6 9 5 3 2 5 5 14 5 7 5 0 6 3 4 2 3 6 5 5 6 3 4 3 4 3 4 1 1 6 4 0 3 7 4 3 4 6 5 6 7 6 5
1 2 4 8 5 3 3 6 11 6 6 4 6 6 7 5 0 3 8 7 8 6 4 5 3 7 7 2 6 1 2 1 3 5 4 1 6 4 2 2 4 7 7 7 6
5 2 4 4 2 3 5 6 6 7 5 3 3 4 6 8 6 7 6 5 5 5 4 1 3 2 6 8 4 3 2 4 6 6 1 5 7 2 1 8 9 6 6 5 6
4 5 5 6 2 5 7 12 2 3 2 3 2 5 7 6 5 4 8 4 1 4 3 3 3 3 11 5 3 3 3 4 4 4 5 5 8 6 7 5 6 8 8 8 9
3 5 4 2 4 3 7 9 3 5 3 4 4 6 5 1 5 1 5 4 4 5 5 5 1 3 6 8 5 6 7 7 7 4 6 7 9 6 6 8 8 8 7 8 7
3 4 3 4 5 6 5 5 8 3 5 6 2 5 6 4 5 5 5 6 7 6 4 5 2 4 8 11 12 9 10 8 7 8 6 8 3 3 5 7 6 6 7 7 7
3 4 5 6 7 7 5 6 8 12 7 7 7 7 4 5 3 3 4 3 4 2 5 4 3 4 6 11 13 15 13 8 6 7 5 6 3 4 3 7 10 8 9 8 8
4 5 2 5 7 6 4 7 10 8 9 1 4 4 1 3 8 6 7 3 1 6 6 5 4 2 4 8 12 9 6 2 3 6 3 4 2 6 10 9 7 8 8 8 7
Wind_Direction
329 330 331 331 333 334 331 325 324 318 312 315 319 328 325 318 305 189 256 223 196 304 312 280 293 273 249 259 263 278 345 289 296 9 153 51 90 35 115 89 117 127 153 196 213
328 327 325 326 331 331 325 323 320 314 315 319 321 328 319 330 279 267 241 202 216 203 249 244 267 265 261 260 263 222 108 270 151 50 23 59 73 64 60 68 103 111 137 180 203
321 319 320 324 325 321 320 319 314 312 311 316 328 319 306 319 300 236 182 209 218 176 252 283 282 272 235 246 255 252 184 31 25 25 34 90 68 61 69 40 54 145 201 192 33
314 315 316 315 313 316 317 313 311 308 306 314 332 310 307 223 340 169 201 218 222 224 275 293 290 292 269 259 248 20 39 84 72 18 23 78 81 59 73 58 80 53 59 67 67
318 314 311 308 310 313 312 310 308 306 306 319 337 315 336 294 249 199 201 238 216 177 217 231 270 275 273 289 62 351 119 63 87 72 64 90 99 112 71 63 53 56 60 66 72
326 316 312 310 310 311 308 305 302 302 304 321 337 311 256 289 207 170 202 233 236 254 261 278 296 314 328 334 77 348 6 122 119 119 108 101 118 98 88 90 84 69 66 57 56
326 317 312 310 312 308 306 304 301 300 303 320 333 313 285 243 308 221 215 229 272 301 310 326 348 11 328 339 1 1 339 303 179 167 150 112 65 109 126 82 81 81 78 68 59
327 318 315 315 312 310 311 306 301 298 299 309 339 297 255 287 295 308 284 248 209 256 245 313 351 315 297 300 325 262 307 255 243 133 143 102 96 114 96 103 93 89 85 78 68
330 322 320 315 316 321 315 302 291 292 285 256 280 197 272 257 253 247 308 345 330 243 288 304 304 245 302 252 334 303 249 249 104 171 145 125 158 150 105 92 89 89 91 90 81
333 326 319 317 329 331 311 272 289 325 288 196 253 324 260 279 76 339 287 252 285 317 274 243 262 243 326 48 280 325 321 350 124 244 150 195 135 153 142 137 127 112 105 103 100
335 327 320 322 335 347 348 347 344 318 238 221 260 215 131 81 148 259 241 282 224 291 276 275 235 295 34 48 14 346 348 340 315 210 144 170 159 171 148 140 128 117 111 107 108
337 328 323 322 320 336 291 261 264 258 306 232 256 273 25 138 249 208 181 247 207 234 258 313 58 359 359 337 37 19 19 358 334 28 39 75 314 140 163 161 139 124 112 117 119
338 330 323 315 308 183 218 248 282 331 284 292 215 239 168 224 275 94 351 345 297 280 274 17 51 22 12 15 36 33 33 2 340 332 357 3 317 260 139 109 96 95 117 118 125
341 333 327 316 332 282 229 243 27 50 353 259 196 245 163 219 235 63 16 315 323 7 16 35 90 51 332 56 40 5 15 359 332 359 306 50 284 311 146 116 114 129 139 139 151
341 335 332 18 301 288 5 358 21 46 312 141 176 238 156 211 129 69 1 319 357 353 56 269 51 48 11 45 45 249 343 287 280 283 332 293 17 285 115 140 169 168 148 145 126
339 333 327 134 217 247 301 28 45 31 248 197 135 179 211 228 160 137 211 178 283 324 305 235 117 91 66 353 310 294 311 322 282 162 342 266 193 329 23 169 100 46 73 92 102
332 324 306 325 261 319 18 5 17 220 316 146 161 181 217 198 171 151 198 220 215 181 342 328 232 85 84 12 359 22 44 347 352 21 208 340 37 26 64 58 77 73 73 57 6
327 317 221 239 281 328 19 15 248 270 289 258 145 171 192 209 185 167 149 281 16 68 29 17 347 25 110 82 349 286 130 142 273 356 284 319 52 207 106 101 112 98 115 70 74
319 227 265 251 245 33 57 265 234 278 0 343 80 321 203 187 123 134 178 265 51 67 106 12 39 128 81 47 94 308 50 189 75 294 10 201 89 56 158 118 61 41 42 64 65
328 289 244 244 140 68 72 252 284 288 354 353 326 234 279 336 94 133 244 27 103 79 91 330 336 344 150 207 139 205 264 32 352 246 298 324 3 160 42 9 8 10 63 44 26
275 298 283 129 94 59 215 250 296 74 51 352 4 360 345 25 260 35 56 48 27 98 83 29 80 298 345 239 194 162 291 216 138 138 164 257 280 174 133 254 63 49 45 40 19
326 291 206 110 75 217 228 250 297 104 118 289 42 348 3 38 22 13 75 82 10 30 37 75 117 304 269 298 78 88 315 117 116 291 2 150 263 10 302 56 70 40 38 11 6
320 261 276 115 220 262 292 308 120 336 42 11 12 65 56 10 22 354 98 117 5 68 71 333 318 357 330 26 41 228 250 212 183 119 202 157 260 267 46 65 43 53 22 7 9
305 307 306 123 217 267 292 305 216 114 4 57 16 60 8 262 285 212 105 133 112 101 127 80 347 178 205 259 303 285 252 231 186 127 220 220 261 352 12 22 21 23 10 20 20
233 289 346 329 342 336 337 313 315 135 187 152 262 226 218 220 282 217 188 134 123 158 119 112 217 279 286 290 296 297 301 288 274 239 169 243 255 30 34 31 17 9 356 29 0
343 10 338 291 311 325 329 322 309 301 160 211 158 263 309 187 215 331 65 71 131 240 167 175 243 314 298 292 287 287 279 271 309 297 45 29 43 56 42 33 15 356 7 4 336
333 331 359 284 310 323 257 265 270 272 298 190 124 48 239 315 90 101 102 101 61 154 203 162 170 0 270 310 318 324 288 306 96 65 91 57 311 24 14 7 344 7 8 340 7